Back to catalog

NOAA 16 DEB

AliveSSO
NORAD 41410·DEBRIS·🇺🇸 United States

Launched Sep 21, 2000 from Vandenberg Space Force Base

Loading…

Next Passes (next 24 hours)

TLE

FreshSource: Space-Track

Epoch: Sep 12, 2026, 08:08 UTC

1 41410U 00055KP  26255.33942393  .00001638  00000-0  77490-3 0  9994
2 41410  98.6957 295.4174 0019575 314.3325  45.6247 14.20957849544231

Track NOAA 16 DEB in real time with AllMySat

Download on the App Store